When you browse on this site, cookies collect data to enhance your experience and personalize the content and advertising you see.
Visit our Privacy Policy to learn more. By continuing to use the site, you agree to this use of cookies and data.
  • In Sweden
  • List of Countries
  • For 7 days
  • Water Temperature
  • Weather Map
  • Weather Widgets
  • user-avatar
    Login

    Hourly Weather Hyde

    Today, 26 August, Monday

    Time Temperature Precipitation Wind Pressure Humidity
    00:00 +20°C° 0 mm 1 mps 751 mmHg 79%
    01:00 +20°C° 0 mm 1 mps 751 mmHg 80%
    02:00 +19°C° 0 mm 1 mps 751 mmHg 82%
    03:00 +19°C° 0 mm 1 mps 751 mmHg 84%
    04:00 +19°C° 0 mm 1 mps 751 mmHg 85%
    05:00 +18°C° 0 mm 1 mps 751 mmHg 85%
    06:00 +18°C° 0 mm 1 mps 751 mmHg 86%
    07:00 +20°C° 0 mm 1 mps 751 mmHg 81%
    08:00 +21°C° 0 mm 1 mps 751 mmHg 75%
    09:00 +23°C° 0 mm 1 mps 751 mmHg 70%
    10:00 +24°C° 0 mm 1 mps 751 mmHg 65%
    11:00 +25°C° 0 mm 2 mps 751 mmHg 61%
    12:00 +27°C° 0 mm 2 mps 751 mmHg 56%
    13:00 +27°C° 0 mm 2 mps 750 mmHg 57%
    14:00 +27°C° 0 mm 2 mps 750 mmHg 57%
    15:00 +27°C° 0 mm 3 mps 750 mmHg 58%
    16:00 +26°C° 0 mm 2 mps 750 mmHg 62%
    17:00 +25°C° 0 mm 2 mps 750 mmHg 67%
    18:00 +24°C° 0 mm 2 mps 749 mmHg 71%
    19:00 +23°C° 0 mm 1 mps 750 mmHg 75%
    20:00 +22°C° 0 mm 1 mps 750 mmHg 79%
    21:00 +20°C° 0 mm 1 mps 750 mmHg 82%
    22:00 +20°C° 0 mm 1 mps 750 mmHg 83%
    23:00 +18°C° 0 mm 0 mps 750 mmHg 84%

    Tomorrow, 27 August, Tuesday

    Time Temperature Precipitation Wind Pressure Humidity
    00:00 +17°C° 0 mm 0 mps 749 mmHg 85%
    01:00 +17°C° 0 mm 0 mps 749 mmHg 85%
    02:00 +17°C° 0 mm 0 mps 749 mmHg 86%
    03:00 +17°C° 0 mm 0 mps 749 mmHg 86%
    04:00 +19°C° 0 mm 1 mps 749 mmHg 86%
    05:00 +19°C° 0 mm 1 mps 749 mmHg 87%
    06:00 +18°C° 0 mm 1 mps 748 mmHg 87%
    07:00 +19°C° 0.1 mm 1 mps 748 mmHg 84%
    08:00 +20°C° 0.1 mm 1 mps 749 mmHg 80%
    09:00 +21°C° 0.1 mm 1 mps 749 mmHg 76%
    10:00 +21°C° 0.1 mm 1 mps 748 mmHg 75%
    11:00 +21°C° 0.1 mm 1 mps 748 mmHg 74%
    12:00 +22°C° 0.1 mm 1 mps 748 mmHg 73%
    13:00 +22°C° 0.1 mm 1 mps 748 mmHg 76%
    14:00 +21°C° 0.1 mm 1 mps 748 mmHg 78%
    15:00 +21°C° 0.1 mm 1 mps 747 mmHg 80%
    16:00 +21°C° 0 mm 1 mps 747 mmHg 80%
    17:00 +21°C° 0 mm 1 mps 747 mmHg 80%
    18:00 +21°C° 0 mm 1 mps 747 mmHg 80%
    19:00 +20°C° 0 mm 1 mps 747 mmHg 82%
    20:00 +19°C° 0 mm 1 mps 748 mmHg 85%
    21:00 +18°C° 0 mm 1 mps 748 mmHg 87%
    22:00 +18°C° 0 mm 1 mps 748 mmHg 87%
    23:00 +18°C° 0 mm 1 mps 748 mmHg 88%

    Day after tomorrow, 28 August, Wednesday

    Time Temperature Precipitation Wind Pressure Humidity
    00:00 +15°C° 0 mm 0 mps 747 mmHg 88%
    01:00 +15°C° 0 mm 0 mps 747 mmHg 88%
    02:00 +15°C° 0 mm 0 mps 747 mmHg 88%
    03:00 +15°C° 0 mm 1 mps 747 mmHg 88%
    04:00 +15°C° 0 mm 1 mps 747 mmHg 87%
    05:00 +15°C° 0 mm 1 mps 747 mmHg 86%
    06:00 +15°C° 0 mm 1 mps 747 mmHg 84%
    07:00 +15°C° 0.5 mm 1 mps 747 mmHg 86%
    08:00 +15°C° 0.5 mm 1 mps 747 mmHg 87%
    09:00 +15°C° 0.5 mm 1 mps 747 mmHg 88%
    10:00 +15°C° 0.8 mm 1 mps 746 mmHg 89%
    11:00 +15°C° 0.8 mm 2 mps 746 mmHg 90%
    12:00 +15°C° 0.8 mm 2 mps 746 mmHg 91%
    13:00 +16°C° 0.1 mm 3 mps 746 mmHg 89%
    14:00 +16°C° 0.1 mm 3 mps 746 mmHg 87%
    15:00 +17°C° 0.1 mm 3 mps 746 mmHg 85%
    16:00 +16°C° 0.6 mm 3 mps 745 mmHg 86%
    17:00 +16°C° 0.6 mm 3 mps 745 mmHg 87%
    18:00 +16°C° 0.6 mm 3 mps 745 mmHg 88%
    19:00 +15°C° 0.4 mm 4 mps 745 mmHg 89%
    20:00 +14°C° 0.4 mm 4 mps 745 mmHg 89%
    21:00 +14°C° 0.4 mm 4 mps 745 mmHg 90%
    22:00 +14°C° 0.6 mm 4 mps 746 mmHg 91%
    23:00 +14°C° 0.6 mm 4 mps 746 mmHg 92%

    29 August, Thursday

    Time Temperature Precipitation Wind Pressure Humidity
    00:00 +13°C° 0.6 mm 4 mps 746 mmHg 93%
    01:00 +13°C° 0.3 mm 5 mps 746 mmHg 88%
    02:00 +12°C° 0.3 mm 5 mps 746 mmHg 84%
    03:00 +12°C° 0.3 mm 5 mps 747 mmHg 80%
    04:00 +10°C° 0 mm 5 mps 747 mmHg 81%
    05:00 +11°C° 0 mm 4 mps 748 mmHg 82%
    06:00 +10°C° 0 mm 4 mps 748 mmHg 83%
    07:00 +12°C° 0 mm 4 mps 749 mmHg 80%
    08:00 +13°C° 0 mm 5 mps 749 mmHg 76%
    09:00 +14°C° 0 mm 5 mps 750 mmHg 72%
    10:00 +15°C° 0 mm 5 mps 750 mmHg 67%
    11:00 +16°C° 0 mm 5 mps 750 mmHg 62%
    12:00 +17°C° 0 mm 5 mps 751 mmHg 56%
    13:00 +17°C° 0 mm 5 mps 751 mmHg 56%
    14:00 +19°C° 0 mm 5 mps 750 mmHg 57%
    15:00 +19°C° 0 mm 5 mps 750 mmHg 57%
    16:00 +17°C° 0 mm 5 mps 751 mmHg 61%
    17:00 +17°C° 0 mm 4 mps 751 mmHg 64%
    18:00 +15°C° 0 mm 4 mps 751 mmHg 68%
    19:00 +14°C° 0 mm 4 mps 751 mmHg 72%
    20:00 +13°C° 0 mm 4 mps 751 mmHg 76%
    21:00 +12°C° 0 mm 3 mps 752 mmHg 80%
    22:00 +12°C° 0 mm 3 mps 752 mmHg 82%
    23:00 +12°C° 0 mm 3 mps 752 mmHg 84%

    30 August, Friday

    Time Temperature Precipitation Wind Pressure Humidity
    00:00 +11°C° 0 mm 3 mps 752 mmHg 86%
    01:00 +11°C° 0 mm 3 mps 751 mmHg 88%
    02:00 +11°C° 0 mm 3 mps 751 mmHg 89%
    03:00 +11°C° 0 mm 4 mps 751 mmHg 91%
    04:00 +11°C° 0 mm 4 mps 751 mmHg 90%
    05:00 +12°C° 0 mm 4 mps 751 mmHg 89%
    06:00 +12°C° 0 mm 5 mps 751 mmHg 88%
    07:00 +13°C° 0 mm 5 mps 751 mmHg 85%
    08:00 +14°C° 0 mm 6 mps 751 mmHg 82%
    09:00 +15°C° 0 mm 6 mps 751 mmHg 78%
    10:00 +16°C° 0 mm 6 mps 751 mmHg 76%
    11:00 +17°C° 0 mm 6 mps 751 mmHg 73%
    12:00 +17°C° 0 mm 7 mps 750 mmHg 71%
    13:00 +17°C° 0 mm 6 mps 750 mmHg 72%
    14:00 +17°C° 0 mm 6 mps 750 mmHg 73%
    15:00 +17°C° 0 mm 6 mps 749 mmHg 74%
    16:00 +17°C° 0 mm 6 mps 749 mmHg 74%
    17:00 +17°C° 0 mm 6 mps 749 mmHg 75%
    18:00 +17°C° 0 mm 6 mps 749 mmHg 76%
    19:00 +16°C° 0 mm 6 mps 749 mmHg 77%
    20:00 +16°C° 0 mm 6 mps 749 mmHg 78%
    21:00 +15°C° 0 mm 6 mps 749 mmHg 80%
    22:00 +15°C° 0 mm 6 mps 748 mmHg 80%
    23:00 +15°C° 0 mm 6 mps 748 mmHg 80%

    31 August, Saturday

    Time Temperature Precipitation Wind Pressure Humidity
    00:00 +15°C° 0 mm 6 mps 748 mmHg 81%
    01:00 +15°C° 0 mm 6 mps 748 mmHg 80%
    02:00 +15°C° 0 mm 6 mps 748 mmHg 80%
    03:00 +15°C° 0 mm 5 mps 747 mmHg 79%
    04:00 +15°C° 0 mm 5 mps 747 mmHg 81%
    05:00 +15°C° 0 mm 5 mps 748 mmHg 83%
    06:00 +15°C° 0 mm 4 mps 748 mmHg 85%
    07:00 +15°C° 0.2 mm 4 mps 748 mmHg 87%
    08:00 +15°C° 0.2 mm 4 mps 748 mmHg 89%
    09:00 +14°C° 0.2 mm 3 mps 749 mmHg 90%
    10:00 +14°C° 0.4 mm 3 mps 749 mmHg 89%
    11:00 +15°C° 0.4 mm 2 mps 749 mmHg 87%
    12:00 +15°C° 0.4 mm 2 mps 749 mmHg 85%
    13:00 +15°C° 0 mm 2 mps 749 mmHg 81%
    14:00 +16°C° 0 mm 2 mps 749 mmHg 76%
    15:00 +16°C° 0 mm 2 mps 749 mmHg 71%
    16:00 +16°C° 0 mm 2 mps 749 mmHg 73%
    17:00 +16°C° 0 mm 2 mps 749 mmHg 74%
    18:00 +15°C° 0 mm 2 mps 750 mmHg 75%
    19:00 +14°C° 0 mm 2 mps 750 mmHg 78%
    20:00 +13°C° 0 mm 2 mps 750 mmHg 81%
    21:00 +12°C° 0 mm 1 mps 751 mmHg 84%
    22:00 +12°C° 0 mm 1 mps 751 mmHg 85%
    23:00 +12°C° 0 mm 1 mps 751 mmHg 85%
    Show more